Theta_e
310 309 308 307 307 305 306 307 298 313 312 297 301 295 297 297 296 299 297 297 295 292 293 291 291 290 294 299 297 292 296 292 286 288 294 296 295 291 291 284 283 287 286 286
309 307 307 306 306 306 304 303 303 313 309 296 295 298 298 299 295 296 295 294 296 297 292 289 293 294 299 299 297 294 295 289 283 285 290 294 291 292 293 293 291 286 283 285
308 307 306 306 306 305 305 304 298 303 304 303 298 296 295 295 300 296 297 295 296 294 292 294 291 293 297 298 297 297 296 290 285 281 285 288 285 288 292 291 286 286 287 289
308 306 306 306 305 305 306 304 298 300 293 295 298 297 295 294 294 298 298 295 294 293 290 291 290 294 295 298 298 298 292 287 290 290 290 291 290 289 291 289 290 286 287 288
307 306 306 306 306 304 306 297 296 298 295 299 297 296 294 293 295 295 293 292 294 295 291 292 290 293 294 294 297 295 295 288 290 288 291 290 289 290 291 291 290 290 290 289
305 305 305 305 306 305 302 303 303 296 294 297 295 295 294 293 294 295 297 295 293 293 295 298 299 300 300 299 295 291 290 290 288 284 289 289 285 290 291 292 293 292 287 293
303 303 303 304 306 305 303 302 301 295 290 294 293 295 295 293 294 291 295 296 294 298 303 302 301 301 301 300 298 296 291 290 289 285 287 278 290 297 296 293 295 296 296 297
302 302 302 303 303 305 302 304 303 297 290 293 294 295 294 296 297 294 295 298 301 304 299 294 292 294 295 296 298 295 296 290 286 283 283 287 290 294 292 290 290 296 298 300
302 302 302 303 303 304 303 304 308 301 292 293 295 294 295 291 291 294 297 300 304 302 296 291 286 285 290 289 292 298 296 293 287 285 280 278 289 293 296 297 286 298 299 299
301 302 302 302 302 303 302 301 310 303 293 296 299 293 292 295 293 290 295 296 297 302 294 289 289 288 293 288 287 289 290 287 284 284 283 287 292 295 295 283 288 297 297 298
301 301 301 301 302 301 301 300 306 303 296 298 300 300 296 296 295 289 294 294 295 295 291 291 291 290 292 291 293 292 288 285 285 287 283 281 297 293 287 293 295 295 296 297
301 301 301 302 303 303 303 297 304 308 300 299 304 303 304 302 301 296 296 294 293 295 293 293 293 290 292 291 286 297 289 290 287 288 288 297 298 295 297 298 294 294 296 303
301 301 301 303 304 304 303 300 302 301 297 297 300 300 306 310 307 309 294 296 298 299 299 295 293 287 294 287 291 293 296 296 288 291 294 296 297 299 300 298 296 299 302 306
300 301 301 303 304 303 302 299 302 301 299 291 296 308 304 308 309 307 305 303 303 303 300 295 291 288 296 292 294 294 297 297 295 293 296 297 297 298 298 298 300 300 302 304
301 301 302 302 302 303 302 301 302 303 296 291 293 300 306 310 306 306 305 304 302 299 294 292 290 293 295 297 298 295 300 296 294 290 297 294 295 299 301 298 298 300 301 302
301 301 302 302 302 301 300 296 307 305 303 291 286 302 301 305 307 305 303 303 301 299 295 293 295 299 296 293 292 299 302 302 302 297 301 299 299 300 300 298 299 301 301 303
300 302 302 301 302 301 298 297 300 305 303 292 288 294 303 306 305 306 304 305 300 298 294 292 293 296 299 294 291 299 302 302 302 302 300 297 298 297 301 299 300 302 302 303
300 302 302 302 303 303 300 305 304 306 299 295 288 292 298 306 301 301 305 300 300 297 294 296 295 299 297 293 300 301 302 302 301 300 299 297 299 300 300 299 299 298 298 300
301 302 302 304 302 300 303 306 306 306 298 290 290 288 291 306 303 302 302 303 292 299 292 294 299 297 293 299 301 301 301 300 300 300 298 298 298 298 299 298 298 297 297 299
301 302 302 298 301 303 305 301 297 295 295 293 289 296 291 297 297 298 301 300 296 292 296 301 297 296 303 302 303 304 303 302 302 297 295 295 296 297 298 296 297 297 297 298
299 295 295 300 305 299 297 295 292 291 287 292 294 295 293 301 294 295 302 298 299 292 297 296 295 296 301 303 305 305 305 304 303 301 299 299 299 298 299 296 296 297 297 297
295 295 299 301 299 296 291 292 295 294 291 296 294 296 298 300 303 298 300 295 297 290 300 295 292 298 302 304 303 304 305 304 303 301 298 299 299 300 300 298 296 297 296 297
301 297 294 295 294 286 287 286 289 289 293 294 294 294 299 297 296 294 295 293 293 301 295 292 296 301 304 305 305 304 305 304 303 301 299 300 299 300 301 299 297 298 296 297
295 290 284 288 289 291 292 291 292 296 297 295 295 295 297 298 293 290 287 295 298 291 289 290 293 303 303 305 305 305 304 304 303 302 300 299 299 299 300 300 299 297 294 295
291 291 283 289 293 293 293 294 293 296 297 295 293 294 295 296 291 291 289 288 289 292 291 297 301 306 305 305 306 304 305 304 303 303 300 299 299 300 299 300 300 298 296 294
293 291 288 292 290 290 292 292 291 294 295 295 295 293 291 291 289 287 289 288 286 288 293 299 304 305 305 307 307 306 305 305 304 304 302 301 300 299 300 300 300 299 298 296
289 290 294 293 291 290 290 292 292 295 292 288 290 287 286 291 287 287 287 285 289 296 298 302 302 302 305 306 306 307 307 305 305 305 304 302 302 302 301 300 300 300 299 298
Wind_Speed
18 20 21 23 24 27 12 6 3 5 3 6 4 6 8 3 5 8 12 7 12 9 14 15 19 18 14 15 12 15 10 7 17 22 25 21 19 16 13 9 13 14 12 19
18 19 20 22 23 21 9 8 4 6 3 3 6 11 14 11 6 9 11 9 10 12 14 15 10 17 18 17 12 9 9 5 11 14 19 9 7 14 18 15 9 15 13 14
18 19 20 22 23 21 10 7 5 3 3 4 8 13 13 13 11 9 4 7 9 13 12 13 11 18 19 6 6 4 5 7 15 16 21 4 7 19 25 19 11 15 14 19
18 18 19 21 25 26 7 5 5 6 7 9 13 8 13 13 13 11 9 11 14 13 16 17 19 15 22 19 5 4 6 9 15 20 23 22 21 27 31 23 19 19 15 18
18 17 17 19 22 29 2 7 7 9 13 10 14 5 8 12 10 14 14 14 14 17 17 17 25 23 18 18 17 8 4 6 15 18 19 22 24 25 27 25 21 22 18 17
18 18 16 17 17 19 5 4 1 4 10 9 12 9 10 11 14 9 11 15 18 19 17 21 22 22 22 20 20 4 3 5 9 16 16 15 15 17 17 24 17 21 18 12
17 17 16 16 14 13 6 2 5 3 7 10 12 16 13 9 10 15 18 17 18 18 20 22 22 24 22 14 2 7 5 9 7 11 13 11 8 17 13 17 18 23 23 17
17 16 15 15 14 11 9 5 2 2 7 12 16 17 16 18 14 14 16 16 12 14 17 12 12 8 1 3 9 12 8 3 5 5 7 13 17 8 10 12 22 16 15 18
16 16 15 15 14 13 9 8 2 2 5 3 16 15 12 8 12 14 5 17 13 12 8 5 6 7 9 4 1 4 6 6 4 4 5 5 6 13 19 14 13 13 13 14
16 16 15 15 13 13 9 9 6 3 5 13 13 10 12 11 8 8 14 11 10 4 5 3 5 6 9 3 6 3 2 2 6 10 6 6 4 6 5 5 7 20 21 18
15 16 16 15 14 12 9 9 8 6 7 17 25 20 14 9 7 6 9 10 3 7 4 4 5 6 5 8 11 4 3 2 3 3 5 3 4 5 4 8 20 21 23 21
15 16 16 14 14 12 10 9 8 3 4 13 24 26 26 26 22 10 3 6 8 5 4 5 6 6 6 12 6 8 3 6 2 5 5 12 12 12 9 12 13 20 19 24
16 16 15 17 16 15 9 10 10 9 9 13 13 15 10 14 15 13 6 6 6 1 1 2 2 6 8 6 8 13 7 5 3 3 1 13 12 9 10 9 14 18 16 15
16 17 17 18 15 14 12 10 9 6 4 6 7 10 15 7 11 13 14 14 3 3 2 2 3 4 7 7 14 15 10 8 7 5 8 8 2 13 5 12 14 15 14 13
17 18 19 17 17 16 13 11 10 8 4 5 10 25 19 11 18 18 15 13 11 7 1 3 3 4 8 8 9 10 4 5 3 3 7 4 13 13 5 9 13 14 12 14
19 19 20 19 18 16 8 4 3 5 4 3 6 12 16 13 6 15 15 11 6 3 3 3 4 10 6 5 7 10 8 4 4 6 8 9 11 14 4 8 11 13 12 10
21 22 21 21 17 8 6 4 2 3 4 2 5 7 2 4 9 3 2 4 3 4 2 4 4 12 5 4 11 16 7 3 12 9 6 11 15 14 7 8 11 11 11 9
24 23 22 18 13 8 7 5 12 7 2 3 4 7 10 7 6 4 6 3 4 4 3 3 5 5 3 7 6 9 12 9 9 11 9 10 13 15 10 10 10 10 12 12
26 25 24 4 3 3 1 6 11 2 1 3 3 4 9 3 1 3 2 5 4 4 5 5 6 5 6 10 5 11 10 10 9 11 12 11 14 12 10 12 12 11 12 12
30 11 7 5 2 4 7 5 3 4 3 3 5 7 14 12 12 4 3 4 5 4 8 6 5 8 9 13 8 7 9 7 10 11 9 11 13 15 11 11 9 10 11 12
5 6 5 7 5 5 6 4 5 4 4 5 6 8 7 6 7 8 4 4 3 4 3 5 5 0 1 10 14 10 9 9 12 7 7 9 12 13 11 11 10 11 12 12
9 8 9 5 3 3 4 4 4 6 3 4 6 4 2 4 4 4 4 4 4 2 5 4 1 4 11 8 5 8 6 7 11 8 8 10 13 13 12 11 9 10 11 11
5 5 4 2 3 2 5 5 3 5 3 3 4 8 2 1 1 4 5 4 4 9 4 1 5 10 9 9 6 5 7 6 9 7 11 11 11 12 13 11 8 9 11 12
4 2 3 5 3 2 4 8 6 5 6 7 8 7 3 3 2 2 4 6 7 4 3 5 6 4 8 4 11 12 10 8 10 7 11 12 11 12 12 11 9 10 11 11
4 3 4 4 6 9 10 10 9 9 8 11 10 10 8 4 3 3 3 3 5 1 4 4 11 14 6 10 11 9 8 4 9 8 9 11 10 10 12 12 12 12 11 11
4 4 6 7 8 9 10 11 8 5 10 10 6 5 6 4 2 3 4 4 3 5 7 8 11 17 14 9 8 7 4 4 7 8 9 9 10 9 10 12 12 12 12 11
4 4 5 6 8 9 9 9 8 7 9 6 5 6 8 6 3 0 5 4 4 5 7 9 13 15 16 16 14 8 6 2 6 10 7 8 8 9 8 10 11 12 12 11
Wind_Direction
345 345 344 343 343 342 331 295 320 96 262 260 235 272 346 289 302 315 276 289 305 325 316 318 308 302 313 325 351 325 7 296 288 290 293 287 285 301 188 266 283 255 277 272
348 346 342 343 343 354 326 302 300 143 244 340 332 318 332 321 343 330 317 310 346 314 313 308 306 311 305 327 351 353 2 287 301 293 277 61 20 321 309 294 307 283 278 282
347 347 342 341 339 342 323 286 321 129 306 222 299 343 319 332 319 288 359 295 282 299 302 299 288 293 302 36 334 277 244 249 254 270 284 110 272 285 285 277 271 272 275 296
343 346 344 344 339 335 312 280 37 24 313 333 317 332 310 298 321 343 326 328 317 307 308 306 296 299 305 309 243 231 181 262 274 264 269 275 243 239 258 240 253 250 293 284
344 343 344 346 343 332 289 350 347 350 294 306 287 256 306 314 329 339 313 295 327 322 302 295 295 297 297 294 306 310 187 269 283 282 276 269 269 265 270 273 274 274 275 277
344 344 345 350 351 338 2 28 119 320 295 295 325 342 331 301 311 307 317 323 308 295 296 291 289 293 292 286 287 167 242 285 298 283 298 342 286 281 315 305 278 273 267 321
343 342 344 346 351 351 313 189 305 303 292 331 319 321 289 302 296 295 296 292 280 288 303 306 294 275 262 243 235 174 220 295 269 288 299 272 325 332 331 348 319 350 346 342
339 340 342 343 343 344 303 312 265 273 287 306 294 343 323 304 323 308 291 288 312 327 306 302 313 324 150 183 153 189 216 294 279 271 271 283 301 10 344 358 314 327 344 335
337 334 338 337 337 336 299 297 160 272 304 202 329 316 314 340 323 311 331 338 328 288 278 296 280 291 334 345 31 110 180 214 261 297 280 284 34 23 356 341 292 20 341 327
332 330 332 331 332 330 313 294 253 262 262 269 280 301 289 304 290 282 293 347 309 258 244 266 268 296 329 334 325 283 277 196 241 259 273 255 69 344 341 287 343 335 323 310
326 324 324 323 322 321 314 306 299 248 271 284 277 283 285 289 265 257 309 313 347 288 285 295 349 314 320 315 317 311 226 278 270 278 270 330 302 348 224 330 309 308 303 298
322 319 320 314 310 307 303 284 270 224 258 282 306 289 276 263 260 254 213 275 326 286 313 5 330 318 295 310 293 319 282 208 230 206 240 315 310 288 241 273 293 293 288 277
318 318 312 311 311 306 298 296 298 276 278 282 265 272 245 223 231 223 214 238 219 278 29 309 320 283 314 296 295 304 317 106 223 273 100 302 310 321 299 323 293 295 303 313
315 312 305 306 309 316 306 283 288 305 301 285 291 313 318 295 212 199 200 233 296 299 282 277 260 258 271 287 294 292 296 181 244 227 278 314 7 314 295 315 305 310 320 320
313 309 303 305 308 307 293 272 262 245 246 309 312 305 276 219 223 209 206 221 242 254 239 221 239 252 265 284 284 270 339 299 335 272 41 358 322 291 2 335 312 313 326 318
312 308 305 305 306 308 281 301 42 200 124 296 292 319 292 267 176 187 200 210 224 183 216 235 236 254 277 273 284 305 18 316 17 21 18 3 321 330 42 330 332 326 319 323
308 307 305 303 298 263 241 2 357 23 104 255 283 267 199 236 178 168 167 197 164 193 192 226 248 266 245 246 264 286 335 21 66 49 13 1 338 328 357 15 335 326 332 348
304 301 304 302 293 238 265 268 153 151 223 234 273 275 269 230 207 230 183 160 166 181 227 226 243 251 195 248 268 333 290 31 37 98 75 11 332 332 33 17 346 348 352 355
301 301 298 278 224 204 228 106 144 166 253 276 261 283 304 355 301 213 225 164 188 196 222 227 233 236 229 247 9 269 56 27 9 73 47 352 341 356 54 28 357 7 355 3
301 289 202 166 52 153 170 184 205 182 183 228 252 249 270 288 297 283 302 168 221 209 217 225 230 263 275 41 276 297 66 37 42 40 15 358 348 358 55 34 15 18 2 8
335 340 358 335 314 263 223 214 206 155 235 213 241 239 269 285 275 295 245 286 238 250 136 225 205 333 71 215 237 75 66 41 69 51 51 1 19 348 45 43 23 25 15 15
325 300 284 270 296 277 284 259 226 208 354 7 337 347 298 299 322 282 275 279 275 291 243 246 51 175 237 102 125 89 80 54 67 29 58 24 30 5 50 53 38 32 20 20
225 203 238 249 264 300 246 324 17 336 333 279 288 312 289 299 294 263 272 269 274 318 283 330 46 282 94 100 103 117 92 72 76 34 68 39 44 32 51 56 46 52 41 31
268 302 288 255 205 271 279 300 321 331 289 309 312 293 258 218 250 320 292 319 296 257 266 61 268 350 54 58 80 57 314 74 77 33 73 63 36 49 55 72 67 63 52 36
279 299 249 274 353 328 329 332 2 353 309 318 317 296 259 154 261 229 296 258 267 317 24 32 341 359 104 115 116 126 261 89 84 56 60 72 59 52 56 58 69 79 82 65
258 230 268 301 323 335 337 332 321 22 309 307 327 294 279 165 209 234 253 281 7 19 331 12 348 352 -0 336 89 129 85 17 98 88 64 68 81 69 68 73 68 65 69 82
264 254 275 324 337 347 344 333 319 328 320 327 316 321 21 305 312 304 24 339 308 342 349 5 351 344 340 351 335 123 107 140 94 102 88 83 80 84 71 75 82 81 79 77